星链-34774(STARLINK-34774)

导读 | 豆包AI

STARLINK-34774是美国SpaceX星链星座的一员,于2025年11月15日发射入轨。星链项目旨在构建全球卫星互联网星座,为全球提供高速低延迟宽带服务。该卫星延续星链设计标准,服役后将补充星座网络容量,助力实现全球覆盖,进一步提升星链服务的稳定性与覆盖能力。

基本信息
目录编号:
66485
目录名称:
STARLINK-34774
国际标识:
2025-263A
轨道中心:
EARTH
卫星名称:
星链-34774
卫星全名:
星链-34774(STARLINK-34774)
卫星状态:
在轨 (已飞行119 天)
发射日期:
2025-11-15 UTC
国别 :
美国 (US)
星等 :
--
轨道信息
数据来源 国际轨道数据
星历时间: 2026-03-13T10:22:56+0800
1天前
查看轨道信息
半长轴: 6861.118km
偏心率: 0.0002357
轨道倾角: 43.006°
近地点辐角 278.408°
升交点赤经 331.167°
平近点角 81.651°
近地点: 481.363km
远地点: 484.599km
周期: 94.265分钟
每日圈数: 15.276028
详细信息
固有亮度:
5
最大亮度:
2.5
卫星平台:
Starlink V1.0
覆盖范围:
全球
运营商:
太空探索技术公司
运营商所在国:
美国
制造商(研发单位):
太空探索技术公司
制造商所在国:
美国
使用方式:
暂无
卫星简介
Starlink 计划是 SpaceX 推出的全球卫星互联网项目,通过发射低轨道卫星,为全球尤其是偏远地区提供高速、低延迟的互联网服务。自 2019 年起,Starlink 已部署数千颗卫星,旨在缩小全球数字鸿沟,推动互联网普及。该项目还为军事、航空等行业提供通信支持,带来广泛经济效益。
2D轨道图
3D轨道图
轨道高度分析图
轨道倾角分析图
轨道综合分析图
查看轨道综合分析图